TimeEDT,TemperatureF,Dew PointF,Humidity,Sea Level PressureIn,VisibilityMPH,Wind Direction,Wind SpeedMPH,Gust SpeedMPH,PrecipitationIn,Events,Conditions,WindDirDegrees,DateUTC
12:53 AM,57.9,37.0,46,29.95,10.0,SSE,4.6,-,N/A,,Clear,160,2013-04-24 04:53:00
1:53 AM,57.9,36.0,44,29.93,10.0,South,4.6,-,N/A,,Clear,170,2013-04-24 05:53:00
2:53 AM,57.0,37.0,47,29.92,10.0,South,3.5,-,N/A,,Clear,190,2013-04-24 06:53:00
3:53 AM,55.9,37.9,51,29.93,10.0,South,4.6,-,N/A,,Clear,190,2013-04-24 07:53:00
4:53 AM,55.0,41.0,59,29.93,10.0,South,6.9,-,N/A,,Clear,190,2013-04-24 08:53:00
6:53 AM,57.9,42.1,56,29.91,10.0,SSW,6.9,-,N/A,,Mostly Cloudy,200,2013-04-24 10:53:00
7:53 AM,61.0,43.0,52,29.91,10.0,SSW,9.2,-,N/A,,Overcast,200,2013-04-24 11:53:00
8:53 AM,64.9,45.0,48,29.88,10.0,South,11.5,-,N/A,,Overcast,190,2013-04-24 12:53:00
9:53 AM,68.0,46.0,45,29.87,10.0,SSW,15.0,19.6,N/A,,Overcast,200,2013-04-24 13:53:00
10:53 AM,70.0,48.0,46,29.84,10.0,SW,15.0,23.0,N/A,,Mostly Cloudy,220,2013-04-24 14:53:00
11:53 AM,73.9,51.1,45,29.80,10.0,South,12.7,-,N/A,,Partly Cloudy,190,2013-04-24 15:53:00
12:53 PM,73.0,50.0,44,29.79,10.0,SSW,15.0,21.9,N/A,,Mostly Cloudy,210,2013-04-24 16:53:00
1:53 PM,73.9,50.0,43,29.76,10.0,SW,9.2,-,N/A,,Clear,220,2013-04-24 17:53:00
2:06 PM,73.4,50.0,44,29.80,10.0,SSW,15.0,24.2,N/A,Thunderstorm,Thunderstorm,210,2013-04-24 18:06:00
2:21 PM,73.4,50.0,44,29.79,10.0,SSW,16.1,26.5,0.00,Rain,Light Rain,210,2013-04-24 18:21:00
2:34 PM,71.6,50.0,46,29.80,9.0,SW,20.7,31.1,0.00,Rain-Thunderstorm,Light Thunderstorms and Rain,230,2013-04-24 18:34:00
2:45 PM,68.0,51.8,56,29.84,4.0,West,18.4,29.9,0.03,Rain,Light Rain,280,2013-04-24 18:45:00
2:53 PM,64.0,55.0,73,29.82,4.0,West,15.0,31.1,0.05,Rain,Rain,280,2013-04-24 18:53:00
3:00 PM,64.4,55.4,73,29.84,8.0,West,9.2,26.5,0.00,Rain,Light Rain,260,2013-04-24 19:00:00
3:53 PM,64.0,55.0,73,29.82,9.0,West,19.6,35.7,0.01,Rain,Light Rain,280,2013-04-24 19:53:00
4:53 PM,60.1,52.0,75,29.85,10.0,WSW,26.5,36.8,0.02,Rain,Light Rain,240,2013-04-24 20:53:00
5:53 PM,61.0,53.1,75,29.84,10.0,SW,23.0,29.9,0.02,,Overcast,230,2013-04-24 21:53:00
6:01 PM,60.8,53.6,77,29.87,10.0,SW,20.7,31.1,N/A,,Overcast,230,2013-04-24 22:01:00
6:38 PM,55.4,50.0,82,29.92,8.0,West,19.6,38.0,0.01,Rain,Light Rain,280,2013-04-24 22:38:00
6:45 PM,53.6,48.2,82,29.93,10.0,WNW,17.3,29.9,0.01,,Overcast,290,2013-04-24 22:45:00
6:53 PM,54.0,48.0,80,29.92,10.0,West,20.7,32.2,0.01,,Overcast,280,2013-04-24 22:53:00
7:53 PM,50.0,44.1,80,30.00,10.0,WNW,15.0,27.6,0.00,,Overcast,300,2013-04-24 23:53:00
8:02 PM,48.2,44.6,87,30.02,10.0,WNW,19.6,29.9,0.00,Rain,Light Rain,290,2013-04-25 00:02:00
8:10 PM,48.2,42.8,82,30.03,10.0,WNW,18.4,27.6,0.00,,Overcast,290,2013-04-25 00:10:00
8:51 PM,46.4,37.4,71,30.09,10.0,West,13.8,20.7,0.00,,Overcast,270,2013-04-25 00:51:00
8:53 PM,46.9,37.9,71,30.08,10.0,West,15.0,27.6,0.00,,Overcast,280,2013-04-25 00:53:00
9:25 PM,46.4,37.4,71,30.14,10.0,WNW,9.2,25.3,N/A,,Overcast,290,2013-04-25 01:25:00
9:53 PM,44.1,37.0,76,30.15,10.0,WNW,15.0,21.9,N/A,,Overcast,290,2013-04-25 01:53:00
10:53 PM,43.0,35.1,74,30.17,10.0,West,4.6,-,N/A,,Overcast,270,2013-04-25 02:53:00
11:01 PM,44.6,33.8,66,30.19,10.0,West,6.9,-,N/A,,Overcast,280,2013-04-25 03:01:00
11:53 PM,42.1,33.1,70,30.17,10.0,WNW,5.8,-,N/A,,Scattered Clouds,300,2013-04-25 03:53:00